Overview Statistics Trail Chart Weather Telemetry Raw packets
 

This is the latest recevied weather packets stored in our database for station/object KC2GYU. If no packets are shown the sender has not sent any weather packets the latest 10 day(s).

<< 90 91 92 93 94 95 >>
Time Temp. Humidity Pressure Rain* Wind** Luminosity Snow
1777379681 13.33° C 80% 1023.1 hPa 0 mm - 283 W/m² -
1777379376 12.78° C 81% 1023.1 hPa 0 mm - 252 W/m² -
1777379072 12.22° C 83% 1023.2 hPa 0 mm - 140 W/m² -
1777378766 12.22° C 82% 1022.9 hPa 0 mm - 101 W/m² -
1777378465 11.67° C 85% 1023 hPa 0 mm - 85 W/m² -
1777378160 11.11° C 86% 1023 hPa 0 mm - 80 W/m² -
1777377853 11.11° C 88% 1023.1 hPa 0 mm - 72 W/m² -
1777377552 10° C 91% 1023.2 hPa 0 mm - 69 W/m² -
1777377248 10° C 95% 1023.1 hPa 0 mm - 48 W/m² -
1777376946 9.44° C 97% 1023.3 hPa 0 mm - 45 W/m² -
1777376642 8.89° C 99% 1023.3 hPa 0 mm - 46 W/m² -
1777376340 8.33° C 99% 1023.2 hPa 0 mm - 47 W/m² -
1777376034 7.78° C 99% 1023 hPa 0 mm - 59 W/m² -
1777375734 6.67° C 99% 1022.7 hPa 0 mm - 46 W/m² -
1777375429 6.11° C 99% 1022.8 hPa 0 mm - 39 W/m² -
1777375127 5.56° C 99% 1022.9 hPa 0 mm - 36 W/m² -
1777374825 5° C 99% 1022.9 hPa 0 mm - 32 W/m² -
1777374522 4.44° C 99% 1023 hPa 0 mm - 29 W/m² -
1777374219 4.44° C 99% 1022.8 hPa 0 mm - 28 W/m² -
1777373915 3.89° C 99% 1022.8 hPa 0 mm - 27 W/m² -
1777373612 3.89° C 99% 1023 hPa 0 mm - 26 W/m² -
1777373309 3.33° C 99% 1022.7 hPa 0 mm - 25 W/m² -
1777373004 3.33° C 99% 1022.6 hPa 0 mm - 24 W/m² -
1777372700 2.78° C 99% 1023 hPa 0 mm - 23 W/m² -
1777372399 2.78° C 99% 1022.7 hPa 0 mm - 20 W/m² -

* Rain latest hour (hover to see other rain measurements)
** Current wind speed in m/s (hover to see current wind gust speed)